Weather in Vilamoura

Portugal     37°06′14″N   8°07′18″W
temp.,
°C
wind,
m/s
gust,
m/s
humid.,
%
clouds,
%
prec.,
mm/h
press.,
hPa
HPBL,
m
21 june, mon
mon2101:00+16nw46810 0.0 1016272
04:00+16nw358250 0.0 1015244
07:00+16nw23742 0.0 1016184
10:00+18wsw236362 0.0 1016598
13:00+19wsw776598 0.0 1017729
16:00+19wsw997297 0.0 1016561
19:00+21w1010620 0.0 1015774
22:00+18nw710740 0.0 1017518
22 june, tue
tue2201:00+16nw610860 0.0 1017399
04:00+15nw58860 0.0 1016321
07:00+15nw47820 0.0 1017293
10:00+20nw57590 0.0 1018955
13:00+22wsw67610 0.0 1017776
16:00+25wnw910471 0.0 1015856
19:00+24wnw911500 0.0 1015602
22:00+20nw913670 0.0 1017382
23 june, wed
wed2301:00+19nnw711700 0.0 1017305
04:00+18nnw59710 0.0 1016276
07:00+18nnw36700 0.0 1016218
10:00+22n12550 0.0 1017351
13:00+22ssw66610 0.0 1017695
16:00+22sw78640 0.0 1015320
19:00+22wsw79620 0.0 1014159
22:00+21nw6105732 0.0 1015143
24 june, thu
thu2401:00+22n711520 0.0 1015160
04:00+22nne611500 0.0 1014148
07:00+21ne35530 0.0 101461
10:00+23e67560 0.0 1016351
13:00+23se45690 0.0 1017313
16:00+23sw32650 0.0 1015251
19:00+24w55640 0.0 1015247
22:00+22wsw33670 0.0 101617
25 june, fri
fri2501:00+22ssw12670 0.0 101512
04:00+21se22740 0.0 101515
07:00+21ene33810 0.0 101535
10:00+23e56660 0.0 1015264
13:00+23se69680 0.0 1015319
16:00+24se711680 0.0 1014357
19:00+23nnw24740 0.0 1014210
22:00+23nne33630 0.0 101513